Weather History for Rawlins, WY

Change the Weather History Date:

Wednesday, August 7, 2013

  Actual Average Record
Temperature  
Mean Temperature 67 °F 67 °F  
Max Temperature 85 °F 83 °F 91 °F (1998)
Min Temperature 49 °F 51 °F 36 °F (1996)
Degree Days  
Heating Degree Days 0 1  
Month to date heating degree days 0 7  
Since 1 June heating degree days 101 232  
Since 1 July heating degree days 0 42  
Cooling Degree Days 2 3  
Month to date cooling degree days 46 21  
Year to date cooling degree days 246 138  
Since 1 June cooling degree days 245 138  
Growing Degree Days 16 (Base 50)    
Moisture  
Dew Point 33 °F    
Average Humidity 38    
Maximum Humidity 66    
Minimum Humidity 10    
Precipitation  
Precipitation 0.00 in 0.03 in 0.36 in (1963)
Month to date precipitation 0.01 0.20  
Year to date precipitation 3.23 5.99  
Sea Level Pressure  
Sea Level Pressure 29.88 in    
Wind  
Wind Speed 5 mph (NE)    
Max Wind Speed 17 mph    
Max Gust Speed 22 mph    
Visibility 10 miles    
Events      
T = Trace of Precipitation, MM = Missing Value Source: NWS Daily Summary

Daily Weather History Graph

Daily Weather History Graph

Search for Another Location

Airport:

Trip Planner

Search our weather history database for the weather conditions in past years. The results will help you decide how hot, cold, wet, or windy it might be!

Date:

Astronomy

Aug. 07, 2013 Rise Set
Actual Time 6:09 AM MDT 8:19 PM MDT
Civil Twilight 5:38 AM MDT 8:49 PM MDT
Nautical Twilight 5:00 AM MDT 9:27 PM MDT
Astronomical Twilight 4:18 AM MDT 10:08 PM MDT
Moon 7:02 AM MDT (8/7) 8:25 PM MDT (8/7)
Length of Visible Light 15h 11m
Length of Day
14h 10m
New Moon, 1% of the Moon is Illuminated
Aug 7
New Moon
Aug 14
First Quarter
Aug 20
Full
Aug 28
Last Quarter
Sep 5
New

Hourly Weather History & Observations

Time (MDT) Temp. Dew Point Humidity Pressure Visibility Wind Dir Wind Speed Gust Speed Precip Events Conditions
12:53 AM 59.0 °F 37.9 °F 46% 29.88 in 10.0 mi ENE 6.9 mph - N/A   Clear
1:53 AM 55.9 °F 37.9 °F 51% 29.89 in 10.0 mi Calm Calm - N/A   Clear
2:53 AM 55.0 °F 39.0 °F 55% 29.88 in 10.0 mi NE 6.9 mph - N/A   Clear
3:53 AM 53.1 °F 39.0 °F 59% 29.89 in 10.0 mi NE 5.8 mph - N/A   Clear
4:53 AM 50.0 °F 37.9 °F 63% 29.91 in 10.0 mi Calm Calm - N/A   Clear
5:53 AM 48.9 °F 37.0 °F 64% 29.93 in 10.0 mi North 4.6 mph - N/A   Clear
6:53 AM 50.0 °F 37.9 °F 63% 29.94 in 10.0 mi NNW 3.5 mph - N/A   Clear
7:53 AM 57.0 °F 42.1 °F 57% 29.92 in 10.0 mi Calm Calm - N/A   Clear
8:53 AM 62.1 °F 43.0 °F 50% 29.92 in 10.0 mi Calm Calm - N/A   Clear
9:53 AM 69.1 °F 39.9 °F 35% 29.90 in 10.0 mi ENE 3.5 mph - N/A   Clear
10:53 AM 71.1 °F 39.0 °F 31% 29.90 in 10.0 mi Calm Calm - N/A   Clear
11:53 AM 75.9 °F 37.0 °F 24% 29.88 in 10.0 mi Calm Calm - N/A   Clear
12:53 PM 80.1 °F 27.0 °F 14% 29.86 in 10.0 mi NNW 5.8 mph - N/A   Clear
1:53 PM 80.1 °F 28.0 °F 15% 29.85 in 10.0 mi North 9.2 mph - N/A   Clear
2:53 PM 82.9 °F 21.0 °F 10% 29.83 in 10.0 mi NNW 9.2 mph - N/A   Clear
3:53 PM 84.9 °F 27.0 °F 12% 29.81 in 10.0 mi NNE 16.1 mph - N/A   Clear
4:04 PM 84.2 °F 26.6 °F 12% 30.11 in 10.0 mi NE 9.2 mph - N/A   Clear
4:53 PM 80.1 °F 26.1 °F 14% 29.83 in 10.0 mi ENE 5.8 mph 18.4 mph N/A   Clear
5:53 PM 82.0 °F 24.1 °F 12% 29.81 in 10.0 mi North 9.2 mph - N/A   Clear
6:53 PM 80.1 °F 26.1 °F 14% 29.81 in 10.0 mi NE 6.9 mph - N/A   Partly Cloudy
7:53 PM 75.9 °F 27.0 °F 16% 29.80 in 10.0 mi ENE 5.8 mph - N/A   Clear
8:53 PM 66.0 °F 27.0 °F 23% 29.83 in 10.0 mi NE 5.8 mph - N/A   Clear
9:53 PM 64.0 °F 27.0 °F 25% 29.83 in 10.0 mi East 5.8 mph - N/A   Clear
10:53 PM 61.0 °F 33.1 °F 35% 29.84 in 10.0 mi ENE 9.2 mph - N/A   Clear
11:53 PM 60.1 °F 36.0 °F 41% 29.84 in 10.0 mi NE 9.2 mph - N/A   Clear